Hourly Weather Roundup
Issued by NWS Central Illinois

Home | Current Version | Previous Version | Text Only | Print | Product List | Glossary On
Versions: 1 2 3 4 5 6 7 8 9 10 11 12 13 14 15 16 17 18 19 20 21 22 23 24 25 26 27 28 29 30 31 32 33 34 35 36 37 38 39 40 41 42 43 44 45 46 47 48 49 50
000
NZUS43 KILX 300010
HWRILX

AREA WEATHER ROUNDUP
NATIONAL WEATHER SERVICE, LINCOLN IL
700 PM CDT WED JUL 29 2015


CITY           SKY/WX    TMP DP  RH WIND       PRES   REMARKS
BLOOMINGTON    SUNNY     81  58  45 NW15      30.06R HX  81
6HR MIN TEMP:  81; 6HR MAX TEMP:  86;

CHAMPAIGN      MOSUNNY   80  63  55 NW9       30.03R HX  81
6HR MIN TEMP:  80; 6HR MAX TEMP:  86;

DANVILLE       PTSUNNY   80  64  59 NW8       29.99R HX  81
6HR MIN TEMP:  79; 6HR MAX TEMP:  86;

DECATUR        SUNNY     83  60  45 NW10      30.04R HX  83
6HR MIN TEMP:  83; 6HR MAX TEMP:  88;

EFFINGHAM      MOSUNNY   84  64  50 NW7       30.03R HX  86
FLORA          CLOUDY    85  74  70 NW9       30.00R HX  93
6HR MIN TEMP:  85; 6HR MAX TEMP:  90;

GALESBURG      SUNNY     79  63  57 W5        30.06S HX  80
JACKSONVILLE   SUNNY     81  62  53 NW6       30.07R HX  82
6HR MIN TEMP:  81; 6HR MAX TEMP:  88;

LACON          SUNNY     80  58  48 NW5       30.02S HX  80
6HR MIN TEMP:  80; 6HR MAX TEMP:  84;

LAWRENCEVILLE  CLOUDY    82  78  88 NW3       29.98R HX  91
6HR MIN TEMP:  77; 6HR MAX TEMP:  90; 6HR PCP:  0.13;

LITCHFIELD     SUNNY     80  65  60 NW9       30.05R HX  82
$$


CITY           SKY/WX    TMP DP  RH WIND       PRES   REMARKS
LINCOLN        SUNNY     82  54  37 NW3       30.04R HX  81
6HR MIN TEMP:  82; 6HR MAX TEMP:  89;

MACOMB         SUNNY     80  61  52 NW5       30.08S HX  81
MATTOON        MOSUNNY   83  67  58 N13       30.02R HX  85
6HR MIN TEMP:  83; 6HR MAX TEMP:  89;

MT CARMEL AP   CLOUDY    84  77  79 CALM      29.98R HX  94
OLNEY-NOBLE AP CLOUDY    82  75  78 N9G17     30.00R HX  89
PARIS          CLOUDY    83  71  67 NW7       30.02R HX  87
6HR MIN TEMP:  82; 6HR MAX TEMP:  88;

PEORIA         SUNNY     82  58  43 NW6       30.04F HX  82
6HR MIN TEMP:  82; 6HR MAX TEMP:  87;

PONTIAC        SUNNY     79  63  58 W8        30.03R HX  80
RANTOUL        MOSUNNY   82  63  52 NW10      30.02R HX  83
ROBINSON       CLOUDY    84  76  76 NW8       29.99R HX  92
6HR MIN TEMP:  84; 6HR MAX TEMP:  88;

SPRINGFIELD    SUNNY     83  58  42 NW8       30.05S HX  83
6HR MIN TEMP:  83; 6HR MAX TEMP:  90;

TAYLORVILLE    SUNNY     79  61  53 NW9       30.05R HX  80
$$

...REGIONAL REPORTS...


CITY           SKY/WX    TMP DP  RH WIND       PRES   REMARKS
CHICAGO O`HARE MOSUNNY   82  51  34 NW15      29.97R HX  81
KANKAKEE       SUNNY     80  62  52 W8        30.00S HX  81
MOLINE         SUNNY     82  57  42 W13       30.03S HX  82
MOUNT STERLING NOT AVBL
MOUNT VERNON   PTSUNNY   84  73  70 N3        30.01R HX  91
PITTSFIELD     SUNNY     81  61  50 N3        30.09R HX  82
QUINCY         SUNNY     80  60  50 NW6       30.08S HX  81
ROCKFORD       MOSUNNY   81  54  39 W12       30.00S HX  81
$$


CITY           SKY/WX    TMP DP  RH WIND       PRES   REMARKS
BURLINGTON     SUNNY     80  61  52 NW8       30.06F HX  81
CEDAR RAPIDS   SUNNY     78  63  59 W9        30.05S HX  80
DES MOINES     MOSUNNY   83  54  36 NW9       30.09F HX  82
KIRKSVILLE     MOSUNNY   81  63  54 NW5       30.12S HX  82
OTTUMWA        SUNNY     78  65  63 W6        30.07F HX  80
ST LOUIS       MOSUNNY   86  63  45 NW14      30.06R HX  87
$$


CITY           SKY/WX    TMP DP  RH WIND       PRES   REMARKS
TERRE HAUTE    CLOUDY    83  70  64 N12G18    29.99R HX  87
EVANSVILLE     CLOUDY    85  75  72 NW5       29.97R HX  93
INDIANAPOLIS   CLOUDY    84  73  69 NW12      29.96R HX  90
LAFAYETTE      MOSUNNY   80  65  59 NW8       29.98R HX  82
MADISON        MOSUNNY   81  52  36 W13G22    29.95R HX  80
MILWAUKEE      MOSUNNY   84  50  30 W17G24    29.92S HX  82
$$




USA.gov is the U.S. government's official web portal to all federal, state and local government web resources and services.